Погода в Калач-Куртлаке

Россия / Ростовская область     48°59′52″N   42°25′33″E
темп.,
°C
ветер,
м/с
пор.,
м/с
влажн.,
%
обл.,
%
осадки,
мм/ч
давл.,
гПа
погр.,
м
20 января, чт
чт2000:00−16ссв00100100 0.1 101911
03:00−11ссв1199100 0.1 101963
06:00−11всв0098100 0.1 101934
09:00−10в0196100 0.1 102075
12:00−9юз1294100 0.1 1020166
15:00−9ю119661 0.1 102010
18:00−16ю2210091 0.0 10219
21:00−17ююв22100100 0.0 102117
21 января, пт
пт2100:00−18ююв23100100 0.0 102034
03:00−16ююв36100100 0.0 102067
06:00−14ююв411100100 0.0 1018143
09:00−9ююв71594100 0.0 1016331
12:00−5ююв91695100 1.1 1013506
15:00−2ю91696100 2.8 1011657
18:000ю91697100 0.3 1011723
21:00−1з51185100 0.6 1012471
22 января, сб
сб2200:00−6юз3692100 0.0 101495
03:00−5ююз3792100 0.0 1015130
06:00−3ююз5994100 0.1 1014410
09:00−3ю2597100 0.7 1015300
12:00−2ююв2496100 1.0 1015306
15:00−2ююв1198100 2.4 1015178
18:00−3ссв1198100 1.6 101617
21:00−3ссз2398100 2.8 101684
23 января, вс
вс2300:00−4ссв3497100 0.1 101778
03:00−5ссв3796100 0.1 1017134
06:00−3ссв4897100 0.4 1018289
09:00−3св5997100 2.0 1017339
12:00−2всв5896100 1.6 1016397
15:00−1всв4998100 3.3 1016471
18:00−1вюв61397100 3.1 1017606
21:00−2вюв81496100 4.8 1017545
24 января, пн
пн2400:00−4вюв71494100 0.8 1018460
03:00−4в71295100 2.3 1019415
06:00−5в61295100 1.4 1019417
09:00−5в6139597 2.8 1020434
12:00−3в71395100 0.6 1020492
15:00−3в61396100 1.4 1020539
18:00−2вюв61296100 2.0 1021531
21:00−2вюв61296100 3.3 1022445